Flag for Angola Weather past 2 weeks in Lucapa, Angola

Now
72 °F

Clear.


Feels Like: 67 °F
Forecast: 68 / 93 °F
Wind: 5 mph from West

Location: Brazzaville / Maya-Maya

Current Time: Feb 28, 2015 at 12:44:23 AM

Latest Report: Feb 28, 2015 at 12:00 AM


Visibility: 5 mi

Pressure: 29.92 "Hg

Humidity: 94%

Dew point: 70 °F

Location of LucapaLocation

Historic Weather in Lucapa — Graph

°F

Lucapa temperature yesterday

Maximum temperature yesterday: 79 °F (at 4:00 PM)
Minimum temperature yesterday: 72 °F (at 10:00 AM)
Average temperature yesterday: 76 °F

Past Weeks' High & Low Weather Summary

 TemperatureHumidityPressure
High95 °F (Feb 16, 3:00 PM)100% (Feb 17, 3:00 AM)30.04 "Hg (Feb 17, 3:00 AM)
Low68 °F (Feb 20, 7:58 AM)44% (Feb 16, 3:00 PM)29.74 "Hg (Feb 18, 4:00 PM)
Average79 °F79%29.89 "Hg
* Reported Feb 12 11:00 PM — Feb 27 11:00 PM, Lucapa, Weather by CustomWeather, © 2015

Note: Actual official high and low records may vary slightly from our data, if they occured in-between our weather recording intervals... More about our weather records

Advertising

Lucapa weather history for previous 24 hours

 ConditionsComfort  
Time TempWeatherWind HumidityBarometerVisibility
11:00 PM
Fri, Feb 27
73 °FClear.3 mph89%29.95 "Hg4 mi
10:00 PM73 °FClear.3 mph94%29.95 "Hg4 mi
9:00 PM75 °FClear.No wind89%29.92 "Hg6 mi
8:00 PM77 °FClear.2 mph79%29.92 "Hg5 mi
7:00 PM77 °FClear.3 mph79%29.89 "Hg5 mi
6:00 PM79 °FPassing clouds.6 mph74%29.89 "Hg5 mi
5:00 PM79 °FPassing clouds.8 mph74%29.89 "Hg5 mi
4:00 PM79 °FLight rain. Passing clouds.8 mph74%29.92 "Hg5 mi
3:00 PM77 °FLight rain. Passing clouds.6 mph74%29.92 "Hg5 mi
2:00 PM77 °FLight rain. Scattered clouds.3 mph74%29.98 "Hg5 mi
1:00 PM73 °FLight rain. Scattered clouds.3 mph89%30.01 "Hg5 mi
12:00 PM73 °FLight rain. Scattered clouds.6 mph83%30.04 "Hg5 mi
11:00 AM73 °FLight rain. Scattered clouds.9 mph89%30.04 "Hg5 mi
10:00 AM72 °FLight rain. Scattered clouds.9 mph94%30.04 "Hg4 mi
9:00 AM73 °FLight rain. Scattered clouds.10 mph89%30.04 "Hg5 mi
8:00 AM75 °FLight rain. Scattered clouds.6 mph89%30.01 "HgN/A
7:00 AM75 °FLight rain. Scattered clouds.7 mph83%29.98 "HgN/A
6:00 AM73 °FPassing clouds.3 mph89%29.92 "HgN/A
5:00 AM75 °FPassing clouds.5 mph83%29.89 "HgN/A
4:00 AM75 °FClear.7 mph83%29.89 "Hg10 mi
3:00 AM75 °FClear.6 mph83%29.89 "Hg10 mi
2:00 AM77 °FPassing clouds.7 mph79%29.89 "HgN/A
1:00 AM77 °FClear.7 mph83%29.89 "Hg5 mi
12:00 AM77 °FClear.6 mph83%29.89 "Hg5 mi
Weather by CustomWeather, © 2015

See weather overviewHow to use our weather pages